This is the latest recevied weather packets stored in our database for station/object N5LSN. If no packets are shown the sender has not sent any weather packets the latest 1 day(s).
| Time | Temp. | Humidity | Pressure | Rain* | Wind** | Luminosity | Snow |
|---|---|---|---|---|---|---|---|
| 1778013773 | 21.67° C | 95% | 1007 hPa | 0 mm | 0.45 m/s, 150° | 160 W/m² | - |
| 1778013470 | 21.67° C | 95% | 1007.1 hPa | 0 mm | 1.34 m/s, 198° | 46 W/m² | - |
| 1778013167 | 21.67° C | 95% | 1007.1 hPa | 0 mm | 2.24 m/s, 215° | 110 W/m² | - |
| 1778012863 | 21.67° C | 95% | 1007.2 hPa | 0 mm | 2.68 m/s, 209° | 93 W/m² | - |
| 1778012559 | 21.67° C | 96% | 1006.8 hPa | 0 mm | 1.79 m/s, 186° | 161 W/m² | - |
| 1778012256 | 21.11° C | 96% | 1007 hPa | 0 mm | 2.24 m/s, 180° | 304 W/m² | - |
| 1778011954 | 21.11° C | 96% | 1007 hPa | 0 mm | 1.79 m/s, 163° | 118 W/m² | - |
| 1778011652 | 20.56° C | 96% | 1006.8 hPa | 0 mm | 1.79 m/s, 185° | 152 W/m² | - |
| 1778011348 | 20.56° C | 97% | 1006.6 hPa | 0 mm | 0 m/s | 124 W/m² | - |
| 1778011044 | 20.56° C | 97% | 1006.9 hPa | 0 mm | 1.34 m/s, 166° | 100 W/m² | - |
| 1778010742 | 20.56° C | 97% | 1006.9 hPa | 0 mm | 0.89 m/s, 139° | 123 W/m² | - |
| 1778010439 | 20.56° C | 98% | 1007.2 hPa | 0 mm | 1.34 m/s, 176° | 101 W/m² | - |
| 1778010135 | 20.56° C | 98% | 1007.2 hPa | 0 mm | 1.79 m/s, 170° | 159 W/m² | - |
| 1778009831 | 20° C | 99% | 1007.3 hPa | 0 mm | 1.79 m/s, 192° | 98 W/m² | - |
| 1778009528 | 20° C | 99% | 1007.3 hPa | 0 mm | 1.79 m/s, 168° | 89 W/m² | - |
| 1778009227 | 19.44° C | 99% | 1007.3 hPa | 0 mm | 1.34 m/s, 174° | 103 W/m² | - |
| 1778008923 | 19.44° C | 99% | 1007.3 hPa | 0 mm | 1.79 m/s, 163° | 102 W/m² | - |
| 1778008621 | 19.44° C | 99% | 1007.5 hPa | 0 mm | 1.34 m/s, 171° | 95 W/m² | - |
| 1778008319 | 19.44° C | 99% | 1007.5 hPa | 0 mm | 1.34 m/s, 170° | 102 W/m² | - |
| 1778008015 | 19.44° C | 99% | 1007.4 hPa | 0 mm | 2.68 m/s, 164° | 94 W/m² | - |
| 1778007715 | 19.44° C | 99% | 1007.6 hPa | 0 mm | 1.79 m/s, 161° | 121 W/m² | - |
| 1778007413 | 19.44° C | 99% | 1007.5 hPa | 0 mm | 1.79 m/s, 174° | 97 W/m² | - |
| 1778007109 | 19.44° C | 99% | 1007.4 hPa | 0 mm | 1.79 m/s, 190° | 113 W/m² | - |
| 1778006806 | 19.44° C | 99% | 1007.5 hPa | 0 mm | 2.24 m/s, 171° | 163 W/m² | - |
| 1778006503 | 18.89° C | 99% | 1007.6 hPa | 0 mm | 1.79 m/s, 165° | 118 W/m² | - |
* Rain latest hour (hover to see other rain measurements)
** Current wind speed in m/s (hover to see current wind gust speed)